Wind_Speed
54 54 55 55 56 56 56 57 57 56 56 56 56 56 56 55 55 54 54 53 52 51 51 50 50 49 49 49 49 47 46 47 48 48 48 48 48 49 50 51 53 55 56 56 55 54 54 54 54 53 53 53 53 54 55 55 55 54 55 54 54 54 54 53 53 53 53 53 52 52 52 51 51 51 51 51 51 51 50 50 50 49 49 49 50
56 56 57 57 57 57 57 57 58 59 59 58 58 58 58 58 58 57 57 56 55 55 54 54 53 52 51 50 50 49 48 49 50 50 50 50 49 50 51 52 54 56 57 57 55 53 53 55 54 52 52 53 53 54 56 56 56 55 55 55 55 55 54 53 52 52 53 52 53 53 52 52 52 52 51 51 51 51 51 51 51 51 50 50 50
58 58 58 58 59 59 59 58 59 59 60 60 61 60 60 60 60 60 60 59 59 58 57 56 56 55 54 53 52 52 51 52 53 53 53 52 51 51 52 53 54 56 57 57 56 53 53 56 56 54 53 54 54 55 56 56 56 56 56 56 56 55 54 53 52 53 53 53 53 53 52 53 53 52 51 51 51 51 51 51 51 51 51 51 51
59 59 59 59 60 60 61 61 61 61 61 61 61 61 61 61 61 62 62 62 61 61 60 60 59 58 58 57 55 55 55 54 55 55 55 54 54 54 53 54 54 56 56 56 56 55 54 56 57 57 57 56 56 56 56 57 56 56 57 56 56 54 54 53 52 53 53 53 53 53 53 53 52 51 52 53 53 52 51 51 51 51 51 51 51
60 59 59 60 60 61 61 62 63 63 64 64 64 63 63 62 62 62 62 62 63 63 63 63 62 61 61 60 59 58 58 58 57 58 58 57 56 56 55 55 56 56 56 57 58 58 57 56 55 57 56 55 55 55 55 57 57 57 57 57 56 54 54 54 53 52 52 53 53 53 53 52 51 52 54 54 53 53 53 53 53 52 51 51 51
60 59 59 59 59 60 61 61 62 63 63 64 65 65 65 65 64 64 63 63 63 64 65 65 65 64 63 63 62 61 61 61 61 60 60 60 58 58 57 57 58 58 57 58 59 59 59 58 58 58 59 58 57 56 56 56 56 55 56 56 56 55 55 54 52 52 52 53 52 52 52 51 51 53 54 53 53 53 53 53 52 52 51 51 51
60 59 59 58 59 59 59 60 60 60 61 62 63 64 65 66 66 66 65 64 64 65 66 66 67 66 66 65 65 65 64 65 64 63 63 63 62 61 60 60 60 60 60 60 60 60 60 61 61 62 62 62 61 60 58 57 56 55 55 56 56 56 55 52 52 52 53 53 52 52 53 52 51 53 53 52 53 52 52 52 51 51 51 51 51
62 61 59 58 58 58 58 58 58 59 60 60 61 61 62 63 64 65 65 65 65 65 66 67 67 68 68 68 68 68 68 68 67 67 67 67 66 64 63 63 63 62 62 62 62 62 62 63 63 63 63 63 63 61 60 59 58 57 57 56 55 55 54 53 52 53 52 53 54 54 54 53 53 53 54 53 53 53 52 52 52 51 52 51 51
63 60 59 56 56 58 58 58 59 59 59 60 60 61 61 61 62 63 64 65 65 64 64 66 67 67 68 68 69 70 71 71 71 70 70 70 70 69 67 66 66 65 65 64 64 64 64 64 65 65 64 63 63 62 61 61 60 59 59 57 54 54 53 53 54 53 53 54 55 55 55 55 54 54 55 54 54 54 53 53 53 53 52 52 51
62 59 56 55 55 58 60 60 60 59 59 59 60 60 60 61 61 62 63 64 64 63 62 62 64 65 67 67 69 70 72 73 73 73 73 74 73 73 72 70 69 68 67 66 66 67 67 66 66 66 65 64 63 63 62 62 62 62 61 59 56 55 54 53 53 53 54 55 55 55 56 55 55 55 55 55 54 54 54 53 54 54 53 53 53
59 57 55 55 55 57 60 62 61 60 59 59 59 60 60 60 61 62 64 64 65 64 63 62 61 62 64 65 67 68 71 73 74 75 76 76 76 75 75 74 73 71 69 68 68 69 68 67 68 68 67 66 65 65 64 64 63 63 64 63 60 57 54 53 53 52 54 55 55 55 55 55 55 56 56 56 56 55 55 55 55 55 55 55 55
60 60 60 61 62 62 64 64 63 61 60 60 60 61 61 61 61 63 64 66 67 67 67 65 63 62 62 63 65 66 67 70 72 74 75 76 77 78 77 76 76 75 73 71 70 70 69 67 68 69 69 69 68 67 66 66 65 64 64 64 63 60 57 55 55 54 53 54 54 54 55 56 56 56 57 58 58 57 57 57 57 57 57 57 58
63 64 64 65 65 66 65 64 63 61 60 61 61 62 62 63 64 64 65 66 68 70 71 70 69 67 65 65 65 66 66 67 69 71 73 74 76 77 77 77 77 76 75 74 73 72 71 70 69 69 68 69 70 69 68 68 69 67 64 64 64 63 61 59 58 57 55 54 54 54 55 56 56 56 57 58 58 58 58 57 57 58 58 58 59
64 64 64 65 65 66 66 65 64 64 63 63 63 64 64 65 66 66 67 68 69 71 73 74 74 73 72 70 69 68 68 69 70 70 71 72 74 75 76 76 76 77 76 76 75 74 73 72 72 71 70 70 71 71 70 70 71 71 68 67 67 67 65 63 61 61 59 56 56 56 56 56 56 57 58 58 58 58 58 58 58 58 58 59 59
58 59 60 62 62 63 64 65 66 66 66 66 66 67 67 68 68 68 68 68 69 71 73 76 77 77 77 75 75 74 73 72 72 73 73 73 73 74 75 76 77 77 77 76 76 75 74 74 74 74 74 73 73 73 73 72 72 73 72 71 70 69 69 67 65 65 63 60 59 58 58 58 58 58 58 58 59 59 58 58 58 59 59 59 59
51 52 53 55 57 58 59 61 62 63 65 66 67 67 68 68 70 71 71 70 70 70 71 73 76 79 79 78 77 77 77 77 76 76 76 75 75 75 76 77 77 78 78 78 77 77 77 76 76 76 76 75 75 74 74 74 74 74 75 73 72 71 71 71 69 68 66 63 62 62 62 60 59 59 59 59 59 59 59 58 58 58 59 59 60
52 54 55 56 58 59 60 62 63 65 65 66 66 66 66 65 66 68 71 73 74 73 72 71 72 75 79 81 81 80 79 79 80 80 79 79 78 78 78 78 78 78 79 79 79 79 79 79 78 78 78 77 77 76 76 76 75 75 76 76 75 73 72 72 72 71 69 67 66 65 65 63 62 62 61 59 59 60 59 58 58 59 60 60 60
58 59 61 63 64 65 66 67 68 70 70 70 70 69 68 67 66 66 67 69 72 75 75 74 73 73 75 79 82 84 84 83 83 82 83 82 82 82 81 81 81 80 80 80 80 80 81 81 80 80 79 79 79 78 78 78 78 77 77 77 77 76 75 74 74 74 73 72 70 68 68 67 65 65 65 62 60 59 59 59 59 60 61 61 60
66 65 66 68 70 73 74 75 76 76 76 76 76 76 74 73 71 70 69 69 70 73 75 76 77 77 77 77 79 83 85 87 88 87 86 85 85 85 85 85 84 84 84 83 82 81 81 82 82 82 81 81 80 80 80 81 80 80 79 78 78 78 79 78 77 77 76 75 74 72 71 69 68 68 68 68 64 61 60 61 61 61 61 61 61
74 73 73 75 78 81 83 85 85 86 85 84 84 84 83 82 80 78 78 77 76 77 78 79 80 81 82 82 82 82 83 85 88 90 91 90 89 88 88 88 87 87 87 87 86 85 84 84 84 84 84 84 83 82 81 81 82 82 81 81 80 80 80 80 79 79 78 77 77 76 74 72 71 71 71 71 70 66 63 63 63 64 63 62 63
80 81 82 83 85 88 91 93 93 92 91 91 91 91 91 91 90 89 88 88 87 86 87 87 88 87 87 87 87 87 86 86 87 89 91 92 93 93 92 91 90 89 89 89 89 89 88 88 87 87 87 87 87 86 85 83 82 83 83 83 82 82 82 82 81 81 80 79 78 77 76 75 74 74 73 73 73 72 69 66 65 66 66 65 65
81 82 82 83 84 85 88 90 91 91 93 94 95 96 96 97 97 98 98 98 97 96 95 95 95 95 93 92 92 93 92 91 90 90 90 91 92 94 95 95 93 92 91 90 91 91 90 90 90 90 89 89 89 89 89 88 85 83 83 83 84 84 84 84 83 83 82 81 80 79 78 77 77 76 75 74 75 76 75 72 68 68 69 69 68
75 75 76 76 76 77 78 80 83 86 88 91 93 96 98 100 101 102 104 104 105 105 104 103 102 101 99 97 95 95 95 95 94 93 92 92 91 92 94 96 96 95 93 92 92 92 92 91 91 91 91 91 91 91 91 91 90 88 85 83 83 84 85 85 85 85 84 82 82 82 80 79 79 79 78 76 76 77 78 77 73 72 72 71 71
67 67 68 68 68 68 70 73 75 78 80 83 86 89 92 95 98 101 103 105 107 109 110 110 110 109 108 106 103 101 99 97 95 94 93 93 93 93 93 94 95 96 95 94 93 92 93 93 92 92 92 92 92 92 92 92 92 91 89 87 85 84 84 84 85 85 85 85 84 84 83 81 81 81 80 78 78 78 80 79 77 76 76 75 73
60 61 60 60 61 62 64 66 67 69 70 73 75 78 82 86 89 93 96 99 102 105 107 109 111 112 112 111 110 108 107 105 103 101 99 96 95 94 94 94 94 95 95 95 94 93 93 93 94 94 93 93 93 93 93 93 93 93 92 90 88 86 84 83 83 84 84 85 85 85 84 83 83 83 82 81 80 80 81 81 79 78 79 79 78
55 55 55 56 57 58 59 59 60 60 61 63 66 68 72 75 78 81 85 88 92 95 98 101 104 107 108 108 109 109 109 109 110 110 108 105 102 99 97 96 95 94 95 96 96 94 93 93 93 93 94 94 94 94 94 94 95 95 94 93 91 89 87 85 84 83 82 83 84 84 84 84 84 84 83 82 82 82 82 82 81 79 78 79 80
53 53 53 54 55 55 55 55 55 55 56 57 59 60 63 65 67 69 72 74 78 81 84 88 92 96 99 102 104 104 105 105 107 108 109 109 107 105 103 100 98 96 95 95 96 96 95 93 92 92 92 92 93 93 93 94 94 96 96 96 94 93 91 89 87 85 84 83 82 82 82 82 83 84 84 83 83 83 83 83 82 80 78 78 79
51 51 52 52 52 52 53 53 53 54 54 54 55 55 57 58 59 60 61 63 65 68 71 73 77 81 86 90 95 98 100 101 102 103 104 105 106 106 105 104 102 100 97 95 95 96 95 94 93 92 91 91 91 91 91 91 92 93 94 95 96 96 95 94 92 90 87 86 84 82 81 81 81 82 83 83 83 83 84 84 82 81 79 79 79
49 50 50 50 51 51 52 52 52 52 53 53 53 54 54 54 54 54 55 56 57 59 61 63 65 68 72 77 81 86 90 94 96 98 99 101 102 103 104 104 103 102 100 97 96 96 95 94 93 92 91 90 90 90 89 89 89 89 89 90 92 93 94 95 95 94 92 90 88 86 84 82 81 81 81 82 83 83 84 84 83 82 81 81 81
48 49 49 50 50 50 51 51 51 51 52 52 52 52 53 52 52 51 50 50 51 52 54 55 57 59 61 64 67 72 77 82 86 90 93 96 98 100 101 102 102 101 100 99 98 97 96 94 93 91 90 89 89 88 88 88 87 87 87 87 87 88 89 90 92 93 94 93 92 90 88 86 84 83 82 82 82 83 84 84 84 83 83 83 84
48 49 49 50 50 50 50 50 49 50 51 51 51 51 52 52 51 50 48 47 47 48 49 50 51 53 54 56 58 61 65 69 73 78 83 87 91 94 97 98 99 99 99 99 99 98 97 95 94 92 90 89 88 87 86 86 86 86 85 85 85 84 85 86 87 88 89 90 91 92 91 90 88 87 85 84 83 82 83 84 85 85 85 86 86
49 49 49 49 49 50 50 49 49 49 50 50 50 50 50 50 49 48 48 47 46 47 47 47 47 48 50 51 52 54 56 58 61 65 70 75 81 85 89 91 93 95 96 97 98 98 97 96 95 93 91 90 88 86 86 84 84 84 84 83 83 82 82 82 83 83 84 84 86 87 89 90 90 90 89 88 86 84 83 83 83 85 87 87 87
49 49 49 49 49 48 49 48 48 49 49 49 49 49 48 48 47 46 46 46 45 45 46 46 46 46 46 47 48 49 50 51 52 54 58 62 67 72 77 81 85 88 91 92 95 96 96 95 95 93 92 90 88 87 86 84 83 82 82 82 81 81 80 80 79 79 80 80 81 82 83 85 87 88 90 90 89 88 86 84 83 84 86 88 89
48 48 48 49 49 48 48 48 48 49 49 49 48 48 47 47 47 46 45 45 44 44 44 44 44 43 44 44 44 45 46 46 46 47 49 51 54 58 64 68 73 78 81 85 88 91 93 94 94 93 91 89 88 87 86 85 84 82 82 81 80 79 79 78 78 77 77 77 77 78 79 80 81 83 86 88 89 90 89 88 86 85 86 87 89
49 49 48 49 49 48 47 47 48 49 48 48 48 48 47 46 46 45 45 44 44 43 43 43 42 41 41 41 41 42 42 42 42 43 43 43 45 47 50 53 59 65 71 75 79 82 86 89 92 92 91 89 87 87 86 85 84 82 81 80 80 79 78 77 77 77 77 76 76 76 76 76 77 79 81 84 86 88 89 90 89 88 87 87 88
49 49 49 49 49 49 48 47 48 48 48 48 47 47 46 46 45 45 44 44 43 43 42 42 41 40 39 38 38 38 38 38 39 39 39 38 38 38 39 41 46 52 58 63 67 71 76 81 85 88 90 89 88 87 86 85 83 82 82 80 79 78 77 77 76 76 76 76 76 76 76 75 75 75 77 80 83 86 88 89 89 89 89 89 89
50 49 49 49 48 48 48 48 47 48 48 48 47 47 46 45 44 44 43 43 42 42 41 40 39 38 37 36 35 35 35 35 35 34 34 34 34 32 32 34 36 40 45 49 54 59 65 70 75 81 84 86 88 88 86 84 83 82 81 80 79 78 77 76 76 75 76 76 76 76 76 76 75 75 74 76 79 82 86 88 89 90 90 90 90
51 50 49 48 48 47 48 48 48 48 48 47 47 46 46 45 44 43 42 42 42 41 40 39 37 36 35 34 33 32 32 31 31 30 30 29 29 29 28 29 29 30 33 37 43 48 54 60 65 71 76 80 84 86 86 85 84 82 81 80 79 78 77 76 76 75 75 76 76 77 77 77 77 76 76 76 77 79 81 83 85 88 90 91 91
51 51 50 49 48 47 47 47 48 47 47 46 46 45 45 44 43 43 42 42 41 40 39 38 36 34 33 33 32 31 29 28 27 26 26 25 25 24 24 24 24 24 25 29 33 37 43 50 56 62 68 73 77 82 84 85 84 82 81 79 78 78 77 77 76 76 75 75 76 76 77 78 78 78 78 78 78 79 79 79 80 83 86 88 89
50 49 50 49 48 47 46 46 47 47 46 45 44 43 44 44 43 42 41 41 41 40 39 37 35 33 32 32 31 30 27 25 24 23 22 22 21 20 19 19 18 18 19 22 25 29 34 40 47 53 60 65 70 75 79 82 82 82 80 79 77 77 76 76 76 75 75 75 75 76 76 77 79 79 80 80 80 80 80 79 80 80 81 81 84
51 50 49 48 47 47 46 46 46 46 46 45 43 42 42 42 43 42 41 40 40 39 38 37 34 32 30 30 30 28 25 23 22 20 19 19 18 16 15 14 14 14 14 16 19 22 26 31 37 44 50 56 62 67 71 75 77 79 79 78 77 76 76 75 75 75 74 74 74 75 75 76 78 79 80 81 81 81 80 80 80 80 80 80 82
52 51 50 49 47 46 46 45 45 45 45 44 43 41 41 41 41 41 40 40 39 38 37 36 33 31 29 28 27 26 24 22 20 18 17 16 16 15 14 13 12 11 11 12 14 16 19 23 28 34 40 46 52 57 62 67 70 73 74 75 75 75 75 75 74 74 73 74 74 75 75 76 77 78 79 79 80 81 81 81 81 81 81 82 83
53 52 51 50 48 46 45 45 45 45 44 43 42 41 40 40 40 40 39 39 38 37 36 35 33 30 28 27 26 24 22 20 18 17 16 15 15 14 14 13 12 12 12 12 13 14 16 19 23 26 31 36 42 47 52 56 60 64 67 69 70 72 73 73 73 72 73 73 74 74 75 76 76 77 78 78 79 80 81 82 82 82 83 83 83
55 54 52 51 49 48 46 44 44 44 43 43 42 40 39 39 39 38 38 37 36 36 36 34 32 30 28 26 25 23 22 20 18 16 15 15 15 15 15 14 13 13 13 14 15 15 17 19 22 24 27 30 34 38 43 46 50 53 56 59 61 64 65 67 68 69 70 71 72 73 74 75 75 76 76 77 78 80 81 82 82 83 84 84 84
57 56 54 52 51 49 47 45 44 43 42 42 41 41 39 38 37 37 36 35 34 34 34 34 32 30 28 26 24 23 21 19 18 17 15 15 15 16 16 15 15 14 15 15 16 17 18 20 22 24 26 28 31 33 36 39 42 45 48 50 52 55 57 58 60 61 63 65 67 69 70 72 73 74 75 76 77 78 79 80 81 82 83 83 84
58 57 56 54 52 50 48 46 45 44 42 41 41 41 39 37 36 35 35 34 33 32 32 33 31 30 28 25 23 22 20 19 17 17 16 15 16 16 16 16 16 15 16 16 17 18 19 20 22 24 26 28 30 32 33 35 38 41 43 45 47 49 50 52 53 55 57 60 62 64 66 68 70 71 72 73 75 76 77 78 79 80 81 81 82
59 58 56 54 52 50 49 47 46 44 42 41 41 40 39 38 36 35 34 33 32 30 30 31 31 29 28 26 23 21 20 19 18 17 17 17 16 17 17 17 17 16 16 17 17 18 19 20 22 23 25 27 28 30 31 33 36 37 39 40 42 43 45 46 47 47 49 52 54 56 59 61 63 66 68 69 71 73 74 75 76 77 77 78 80
61 58 56 54 52 50 49 47 46 44 43 41 40 40 39 38 37 36 34 33 32 30 30 29 29 29 28 26 24 22 21 20 20 19 19 18 18 18 18 18 17 17 17 17 17 18 18 19 21 22 24 25 26 28 29 30 32 33 34 35 36 37 38 39 39 39 41 42 44 45 47 49 51 54 56 59 61 64 66 68 70 71 72 74 75
62 58 55 53 51 50 48 47 45 44 42 41 40 39 38 37 36 36 35 34 32 31 30 29 28 28 28 27 25 23 22 22 22 22 21 21 20 19 19 19 18 17 17 17 17 17 17 18 19 21 22 23 24 26 27 28 29 30 30 32 33 34 35 35 35 36 37 38 39 39 40 41 43 44 45 47 49 52 55 57 59 61 63 65 67
61 57 54 53 51 49 47 46 45 43 42 41 40 39 38 37 36 36 36 34 33 31 31 30 28 27 27 27 26 24 24 24 23 23 23 23 22 20 20 19 18 18 17 17 17 17 17 17 18 19 21 22 23 24 24 25 26 27 28 29 31 32 33 34 34 34 35 36 37 37 38 39 39 40 41 42 44 45 47 47 48 50 53 55 58
60 56 54 52 51 49 48 46 44 43 41 40 40 39 38 37 36 36 36 35 34 32 31 30 29 28 27 26 26 25 25 25 25 24 24 24 23 22 20 19 18 18 18 17 17 17 17 17 18 19 20 21 22 22 23 23 23 24 25 27 29 30 31 32 33 33 34 35 35 36 36 36 37 37 37 38 40 41 42 43 43 44 45 47 49
Wind_Direction
272 271 270 269 269 268 267 267 267 266 266 266 266 267 267 266 266 265 264 264 263 262 261 260 259 258 258 258 259 259 259 260 259 257 256 255 255 254 254 252 252 254 255 256 257 258 256 254 253 254 256 258 259 259 258 258 257 256 256 257 256 256 257 257 256 257 257 257 258 258 258 258 258 257 256 256 256 255 255 254 253 252 252 253 252
272 270 269 268 267 267 266 265 265 264 264 264 263 263 264 265 264 264 264 263 262 261 260 259 258 257 257 256 257 258 257 257 258 257 255 254 253 253 253 253 253 254 255 256 257 257 257 256 254 253 254 255 257 258 258 258 258 258 257 257 257 257 256 256 257 257 257 256 256 255 255 256 256 256 255 255 254 253 253 252 253 252 252 253 253
273 271 269 268 267 266 266 265 264 263 263 262 262 261 261 261 262 262 262 262 261 260 259 259 258 257 256 255 255 255 256 256 256 256 256 255 253 252 252 252 253 254 254 256 255 254 256 257 257 256 254 253 254 255 256 257 258 258 258 258 257 258 258 257 257 257 256 255 255 255 255 254 253 254 255 255 254 252 251 251 251 252 252 252 253
274 272 271 269 267 266 265 264 263 262 262 261 261 261 260 259 259 259 259 259 259 259 258 257 257 256 255 255 254 254 254 255 256 256 255 255 255 254 252 252 252 252 253 253 253 252 252 255 257 258 256 254 253 253 254 255 256 257 257 257 257 257 258 257 256 255 255 255 255 254 254 253 253 254 253 252 251 251 251 250 250 249 250 250 251
275 274 272 270 268 267 265 264 263 262 261 260 259 259 259 259 259 258 257 257 256 256 256 256 255 254 254 254 254 254 253 253 254 254 254 254 254 254 253 252 252 252 252 252 252 252 251 252 253 256 256 254 253 252 252 253 253 254 256 257 256 256 256 256 256 255 255 254 254 254 253 253 253 253 251 250 251 251 251 250 250 250 249 249 249
276 274 273 271 269 267 266 264 263 262 261 260 260 259 258 258 258 258 257 256 255 254 254 254 254 253 252 252 252 253 252 252 252 253 254 253 252 252 252 252 251 251 251 251 251 251 251 251 250 252 254 255 256 255 253 252 252 253 254 255 256 256 255 255 255 255 255 254 254 254 254 253 253 252 252 252 252 251 251 251 251 251 251 250 249
275 274 272 271 269 268 266 265 264 263 262 261 260 259 259 258 258 257 257 256 254 253 253 253 253 252 252 251 251 251 251 251 251 251 252 252 251 250 249 249 250 250 250 250 250 250 250 250 251 251 252 255 257 257 256 255 254 253 252 253 255 255 255 254 253 253 253 254 254 253 253 252 252 252 253 252 252 252 252 252 251 251 251 251 250
276 275 274 272 270 268 266 265 264 263 262 262 261 260 259 258 257 257 257 256 255 253 252 251 251 251 251 250 250 250 250 250 250 250 250 251 250 249 248 248 248 248 248 248 249 250 250 250 250 251 251 253 254 256 257 257 257 256 254 252 252 253 254 254 253 252 251 252 252 252 252 251 251 251 252 252 252 252 252 252 252 251 250 250 250
279 278 277 274 272 270 268 267 267 266 264 263 262 260 259 258 256 256 256 256 256 255 253 251 250 250 249 249 249 249 249 249 249 249 249 249 248 248 247 246 246 246 247 247 247 248 249 249 250 250 251 251 253 254 255 256 257 258 256 253 251 252 252 253 254 253 252 251 250 251 251 251 251 251 251 252 253 253 253 253 253 252 251 251 250
281 279 277 274 272 271 272 272 271 270 268 266 263 261 260 258 256 254 254 254 255 255 254 252 250 249 248 248 247 247 247 248 247 247 247 246 246 247 246 245 245 245 245 246 246 247 247 247 248 249 250 251 251 252 253 254 256 257 257 256 254 252 252 252 253 253 253 252 251 251 251 251 252 252 252 251 251 251 252 252 252 252 251 250 249
279 277 275 273 271 271 273 274 274 272 270 267 265 263 260 258 256 254 252 251 252 253 253 252 251 249 248 247 247 246 246 246 246 246 246 245 245 245 245 244 244 244 243 243 244 245 246 246 247 248 249 249 250 250 250 251 252 254 256 257 255 253 252 253 252 252 252 253 252 252 252 253 252 252 251 250 250 249 249 249 249 250 249 248 248
276 275 273 272 271 271 272 273 273 271 269 267 266 264 262 260 257 254 252 251 250 251 251 251 251 249 248 247 247 246 246 246 246 245 245 244 244 244 243 243 243 243 242 242 243 244 245 245 246 248 248 248 248 249 250 250 250 250 252 254 255 253 252 252 252 251 251 252 253 253 253 252 252 252 251 250 250 249 249 248 248 248 248 248 248
275 273 272 271 270 270 269 270 269 268 266 265 264 263 262 261 259 256 254 251 250 250 250 251 251 250 249 248 247 247 246 246 246 246 245 244 244 243 243 243 243 243 242 242 242 243 244 244 244 245 246 247 247 248 249 249 250 250 249 249 251 252 252 252 252 250 249 250 252 252 252 251 251 251 251 251 251 250 249 249 249 249 249 249 249
270 269 268 267 266 266 266 266 266 266 265 263 263 262 262 261 260 258 256 254 251 250 249 250 251 251 250 249 247 247 247 246 246 246 246 245 245 244 243 243 243 243 243 242 242 243 243 244 244 244 244 245 246 246 246 246 247 249 248 248 249 250 251 250 251 250 248 247 249 250 250 250 250 250 250 250 250 251 250 250 250 250 250 250 250
263 262 262 262 262 262 262 263 264 264 264 263 263 263 263 262 261 259 257 256 254 252 250 250 250 250 251 251 249 248 247 247 246 246 246 246 246 245 245 245 244 244 244 244 244 244 243 243 243 243 243 244 244 245 245 246 246 247 247 248 249 250 251 250 249 249 249 247 248 249 249 249 248 249 249 249 249 249 249 249 250 250 251 251 251
265 264 264 264 263 262 262 262 261 261 260 259 259 259 260 260 260 259 258 257 255 254 253 251 250 250 249 250 250 249 248 247 246 246 246 246 246 246 246 246 245 245 245 245 245 245 245 244 244 244 243 243 243 243 244 245 246 246 247 246 246 247 249 251 250 250 249 247 248 249 249 248 248 248 248 247 247 248 248 249 249 251 252 252 252
273 272 271 270 270 268 267 265 264 263 261 260 259 257 255 255 255 256 257 258 256 254 252 251 251 251 250 249 248 248 247 247 247 246 245 245 245 245 245 245 245 245 246 246 246 246 246 246 245 245 244 244 243 243 243 243 244 245 246 247 246 246 246 248 250 251 250 248 247 248 249 248 248 248 247 245 245 246 247 247 249 250 251 252 252
280 279 276 274 273 272 271 270 269 268 266 265 263 260 256 254 252 252 253 255 256 255 253 251 249 249 250 250 250 248 247 246 245 246 246 245 245 244 244 244 244 244 245 245 246 246 246 246 246 246 245 244 244 243 243 243 243 243 244 245 246 246 246 246 247 248 250 250 249 248 248 249 248 249 248 245 244 245 246 246 247 249 250 251 252
282 281 278 276 274 274 274 274 275 275 274 272 269 266 263 259 256 254 254 254 255 256 257 256 255 253 251 250 250 250 250 248 246 245 245 245 245 244 244 244 243 243 244 244 245 245 246 246 247 247 246 246 245 244 243 243 243 243 243 244 245 246 246 246 246 246 247 248 250 250 249 249 249 249 249 247 245 244 246 247 247 247 249 250 251
282 280 277 275 274 275 277 278 278 278 277 276 275 273 270 266 263 260 258 257 258 259 260 261 262 262 260 256 253 251 251 251 251 249 247 245 245 244 244 244 243 243 243 244 244 244 245 246 246 247 247 247 246 245 244 243 243 243 243 243 244 245 245 246 246 246 246 246 247 248 249 249 249 249 249 249 247 245 245 247 247 247 247 248 249
284 282 280 278 276 276 277 278 279 278 277 276 276 275 274 272 270 267 264 263 262 262 262 262 264 265 265 264 261 257 254 252 252 252 251 250 248 246 245 244 244 244 244 244 244 244 244 245 245 245 246 246 246 246 246 245 244 244 244 243 243 243 244 245 245 246 246 246 246 246 247 248 248 249 248 249 249 248 245 246 247 247 247 247 247
284 284 283 282 280 279 278 278 278 278 277 277 276 276 276 275 274 272 270 269 267 266 265 264 265 266 266 266 265 263 261 258 255 253 252 252 252 251 249 247 246 245 244 244 244 244 244 244 245 244 244 245 245 245 246 246 245 244 244 243 243 243 243 244 245 245 245 246 246 246 246 246 247 248 247 247 249 250 248 246 246 247 247 247 247
284 284 284 284 284 284 283 282 281 280 279 278 277 277 277 276 276 275 273 272 271 270 269 267 267 267 267 266 265 264 263 261 259 256 254 253 253 253 253 251 250 249 248 246 245 244 244 244 244 244 244 244 244 244 244 245 245 245 245 244 244 244 244 244 244 245 245 246 246 246 246 246 246 247 247 246 247 249 250 249 247 246 246 246 247
288 287 287 287 286 286 285 284 283 282 282 280 279 278 277 276 276 275 274 273 272 271 270 269 268 267 266 265 264 263 262 261 260 258 256 255 254 254 255 254 253 252 251 251 249 247 245 244 244 244 244 244 244 244 244 244 245 245 246 245 245 244 244 244 244 245 245 245 246 246 246 246 246 246 246 246 245 247 250 251 249 248 246 245 245
289 289 289 288 288 287 286 286 285 285 284 283 282 280 279 277 275 275 274 273 272 272 271 270 268 267 266 265 263 262 261 260 260 260 258 256 255 254 255 255 255 254 253 253 252 251 249 247 246 245 245 245 245 244 244 244 244 245 245 245 246 246 246 245 245 245 245 246 246 246 246 246 246 246 246 246 245 246 248 250 250 250 250 249 247
291 291 292 292 292 291 291 291 291 291 291 290 288 286 283 281 278 277 275 274 273 272 271 270 269 268 267 265 264 262 260 259 259 259 259 258 257 255 254 254 255 255 254 254 253 253 252 251 249 248 247 246 246 246 245 245 245 245 245 245 245 246 246 246 246 246 246 246 246 246 246 246 246 246 246 245 245 246 246 248 249 249 250 251 251
297 296 296 295 295 296 296 297 298 298 298 297 295 293 290 288 286 283 281 278 276 274 272 271 270 269 269 267 266 264 262 260 258 258 257 257 257 256 255 254 253 254 254 254 254 253 252 252 251 250 250 249 248 248 248 247 246 246 246 246 246 246 246 246 246 246 246 246 246 246 246 245 246 246 246 246 245 245 246 247 247 248 248 248 249
299 297 297 297 298 299 300 301 302 302 302 302 301 300 299 297 295 292 289 286 283 280 277 275 273 271 270 269 268 266 265 262 260 258 257 256 255 255 254 253 252 252 252 253 253 253 252 251 251 251 251 250 249 249 249 249 248 247 247 246 246 246 246 246 246 246 246 246 246 246 246 246 246 246 246 246 246 246 246 246 246 247 246 247 247
298 297 298 299 301 301 302 302 303 304 304 305 305 305 305 304 303 300 298 295 292 289 286 283 280 277 274 272 270 269 267 266 263 261 259 257 255 254 253 252 252 251 250 250 251 252 252 251 250 250 250 250 250 249 249 249 249 249 248 248 247 247 246 246 246 246 246 246 246 246 246 246 246 246 246 246 246 246 246 246 246 246 246 246 247
301 300 301 302 302 302 302 303 304 305 306 306 307 307 307 308 307 307 306 304 301 298 295 292 289 286 282 279 276 272 270 268 266 264 262 259 257 255 253 252 251 250 249 248 248 249 250 250 250 249 249 249 249 249 249 249 249 249 249 249 248 248 247 247 247 246 246 246 246 245 245 246 246 246 246 247 247 247 247 246 245 245 245 245 246
304 302 302 302 303 303 304 305 305 306 306 307 308 308 308 309 310 311 312 310 307 304 301 298 295 292 289 286 282 278 274 271 268 266 264 261 259 257 255 253 251 250 248 247 247 247 247 248 249 249 248 248 248 248 249 249 249 249 249 249 248 248 248 248 248 247 247 247 246 246 245 245 245 246 246 247 247 247 247 247 246 246 245 246 246
306 304 302 302 303 304 306 306 307 307 307 308 308 309 309 311 312 313 312 312 310 308 305 302 299 296 293 290 288 284 281 277 274 270 266 264 261 259 257 255 253 250 248 247 246 246 245 245 246 247 248 248 247 247 248 248 248 249 249 249 249 248 248 248 248 248 248 248 247 247 246 246 245 245 246 246 246 246 246 246 246 246 246 246 247
307 305 304 303 304 305 306 307 308 307 308 309 310 310 311 312 313 313 313 312 311 309 308 307 304 302 298 295 293 290 287 284 281 276 272 268 264 262 259 257 255 253 250 248 246 245 244 244 244 244 245 246 247 247 247 247 248 248 248 248 248 248 248 248 248 248 248 248 248 248 248 247 246 245 245 245 245 245 245 245 245 245 244 245 246
309 307 305 304 304 306 307 308 309 309 309 310 311 311 313 314 314 315 314 313 312 311 310 309 308 306 303 300 297 294 292 290 287 283 279 274 269 265 262 259 256 254 252 249 247 245 244 243 243 243 243 244 245 246 246 247 247 247 247 247 247 247 248 248 248 248 248 248 248 248 248 248 247 247 246 245 245 244 244 244 244 244 243 243 244
311 309 308 306 305 306 307 308 309 309 310 311 312 312 313 315 315 316 315 314 313 312 312 312 311 310 308 306 302 299 297 294 290 288 285 282 277 272 267 262 258 254 252 250 248 246 244 242 242 242 242 242 243 244 245 246 246 247 247 247 247 247 247 247 248 248 248 248 248 248 248 247 247 247 246 246 245 245 244 243 243 243 243 244 243
312 311 310 309 308 307 308 308 309 310 310 312 312 313 314 315 315 316 316 315 315 314 314 314 313 313 312 310 307 304 301 298 295 292 290 287 283 279 273 266 260 256 253 251 249 246 244 242 241 240 240 240 241 242 243 244 245 246 246 247 247 247 246 246 246 247 247 247 248 248 247 247 247 246 246 245 245 245 245 244 244 243 244 244 244
313 312 311 310 310 309 308 308 309 310 310 312 313 313 314 315 315 316 316 315 315 315 315 315 314 314 313 312 311 309 306 303 300 297 294 290 287 283 277 271 264 259 256 252 248 245 243 241 240 239 238 238 239 240 241 242 243 244 245 246 246 247 247 247 246 246 246 246 247 247 247 247 247 246 246 245 245 245 244 244 244 244 244 244 245
314 313 312 311 311 310 309 309 309 309 310 311 312 313 314 315 315 315 316 315 316 316 316 316 316 316 315 314 313 312 310 308 305 301 297 293 290 286 281 276 270 264 259 254 248 244 241 239 237 237 236 236 236 237 239 240 241 242 243 244 245 246 246 247 246 246 246 246 246 246 247 247 247 246 245 245 244 244 245 245 245 245 245 245 245
315 314 313 312 312 311 310 309 308 308 308 309 311 312 313 314 314 315 315 316 316 316 316 316 317 317 316 315 314 313 312 310 308 305 301 297 293 289 284 280 275 268 260 255 250 245 241 237 235 234 234 234 234 235 236 238 239 240 242 243 243 244 245 246 246 246 246 246 246 246 246 246 246 246 246 245 245 245 245 245 245 245 245 245 245
317 314 312 312 311 311 309 307 306 306 307 308 309 311 313 314 314 314 314 315 315 316 315 315 316 317 316 315 314 313 313 312 310 308 304 301 297 293 288 284 277 269 261 255 251 246 241 238 235 233 232 232 232 232 234 235 237 238 240 241 242 243 244 244 245 245 246 246 246 246 246 246 246 246 246 246 246 246 246 246 245 245 245 246 245
319 316 314 312 311 310 309 307 306 305 306 306 308 310 312 313 313 313 313 314 315 315 315 315 316 316 316 314 313 314 314 313 312 311 308 305 304 302 296 290 283 274 264 255 251 246 242 239 237 234 232 232 231 232 233 234 235 237 238 239 241 242 243 244 244 245 246 246 246 246 246 246 247 247 247 247 247 248 248 247 247 246 246 245 245
320 318 315 313 312 311 309 308 306 305 305 305 307 309 311 312 311 311 312 313 315 315 315 314 315 315 314 313 312 313 314 314 314 313 312 310 311 310 306 300 293 284 273 262 253 247 242 239 238 235 234 233 232 232 233 234 235 236 237 238 239 240 242 243 244 245 246 247 247 247 247 248 248 248 248 248 248 248 248 248 248 248 247 246 246
321 319 316 315 314 312 310 308 306 305 304 304 305 306 309 310 310 309 310 312 314 315 315 313 313 313 312 311 310 310 310 311 311 312 312 311 311 310 307 302 297 289 281 271 260 251 244 241 239 236 235 233 233 233 234 235 235 236 238 239 239 240 241 242 243 245 246 247 248 249 249 249 249 249 249 249 249 249 249 249 249 248 248 248 247
322 320 318 316 315 314 312 310 307 304 303 303 303 304 306 307 307 307 308 310 312 314 314 312 311 311 310 308 306 306 305 304 304 304 305 306 305 304 300 296 291 284 278 270 262 254 247 243 240 238 236 234 234 233 234 234 235 237 238 239 240 241 241 242 243 244 245 246 247 248 249 249 250 250 250 250 249 249 249 249 249 249 249 249 248
322 320 318 317 315 314 313 311 308 305 303 302 302 302 303 304 305 305 306 307 309 311 312 311 310 309 307 304 302 301 300 298 297 296 297 299 300 299 297 293 287 281 274 268 262 256 250 246 243 241 239 236 235 235 235 235 235 237 238 239 240 241 242 242 243 244 244 245 246 247 248 249 249 250 250 250 250 250 250 250 249 249 249 249 249
322 319 317 316 315 314 312 311 309 307 305 303 301 300 301 302 303 303 304 305 305 307 310 310 309 308 305 301 298 297 296 294 293 293 293 294 295 295 294 291 287 282 276 270 264 259 253 249 246 244 243 241 239 238 238 237 238 238 239 240 241 242 243 243 244 245 246 246 247 247 248 249 249 250 250 251 251 251 250 250 250 250 250 250 250
323 320 318 316 314 313 312 310 309 307 306 304 301 299 299 299 301 302 302 302 303 303 305 308 309 307 304 299 294 291 291 289 289 289 291 292 292 291 290 288 285 281 277 273 267 262 256 252 249 246 245 244 243 241 240 240 240 240 241 242 242 243 243 244 244 245 246 247 247 248 249 249 250 250 251 251 251 252 251 251 251 250 250 250 250
327 324 320 317 314 312 310 308 307 306 305 304 301 298 297 297 298 300 300 300 301 300 300 303 306 306 304 299 292 287 285 284 285 286 287 288 289 289 288 286 283 280 276 273 269 264 259 254 251 248 246 245 244 244 243 242 243 242 242 242 242 242 242 242 242 242 244 246 247 247 248 249 250 250 250 251 251 251 251 251 251 251 250 250 250
330 327 324 320 317 313 310 307 305 304 304 303 301 299 297 295 296 297 298 298 299 298 297 298 300 303 303 300 293 286 281 280 281 283 284 285 286 287 287 285 282 279 276 274 270 265 261 256 252 250 248 247 247 246 246 245 245 244 243 243 242 242 241 241 241 242 243 246 247 248 249 250 250 250 251 251 251 252 252 252 251 251 250 250 250
333 330 327 324 321 317 313 309 306 303 302 301 300 299 297 295 294 293 294 295 295 296 295 293 294 297 299 299 295 289 282 278 278 279 281 282 282 282 283 283 280 277 276 274 271 267 262 258 254 251 250 249 250 250 249 249 247 246 244 244 243 243 242 242 242 242 244 246 248 249 250 251 252 252 251 251 252 252 252 252 252 252 251 250 250
333 332 330 328 324 321 318 314 309 305 302 300 299 298 297 295 292 290 290 291 292 292 292 291 290 290 292 294 294 291 285 280 277 276 277 279 279 277 277 277 278 277 275 273 271 268 265 260 257 254 251 250 251 251 251 251 249 248 246 245 245 244 244 243 243 243 244 246 248 250 251 252 253 253 252 252 252 253 252 252 252 252 252 251 251
Height
5645 5644 5642 5641 5640 5638 5638 5637 5636 5636 5636 5635 5634 5634 5632 5632 5632 5632 5632 5632 5633 5632 5632 5632 5632 5632 5633 5632 5633 5635 5636 5634 5634 5635 5636 5636 5636 5636 5638 5638 5638 5638 5638 5638 5640 5641 5642 5644 5646 5648 5649 5650 5650 5650 5650 5650 5652 5653 5654 5656 5658 5659 5660 5662 5664 5664 5666 5667 5668 5670 5670 5672 5674 5676 5678 5681 5682 5684 5686 5687 5688 5692 5692 5694 5695
5636 5634 5634 5632 5631 5630 5629 5628 5628 5627 5626 5626 5626 5626 5625 5624 5624 5624 5624 5624 5624 5624 5624 5624 5624 5625 5626 5626 5626 5627 5628 5627 5626 5626 5628 5628 5629 5630 5630 5631 5631 5631 5631 5632 5633 5634 5634 5636 5638 5641 5642 5643 5643 5643 5644 5644 5646 5647 5648 5650 5650 5652 5654 5656 5658 5658 5659 5660 5661 5662 5664 5666 5667 5668 5671 5674 5676 5678 5679 5680 5682 5685 5687 5688 5689
5626 5624 5624 5623 5622 5621 5620 5619 5618 5618 5618 5617 5616 5616 5616 5616 5616 5615 5615 5615 5616 5616 5616 5616 5616 5617 5618 5618 5618 5618 5618 5618 5618 5618 5619 5620 5621 5622 5622 5623 5624 5624 5624 5624 5626 5628 5628 5628 5629 5632 5634 5636 5636 5636 5636 5638 5640 5640 5642 5642 5644 5645 5647 5649 5652 5652 5652 5653 5654 5656 5658 5659 5660 5663 5666 5667 5668 5670 5672 5674 5676 5678 5680 5682 5682
5616 5614 5614 5613 5612 5611 5610 5609 5608 5608 5607 5607 5607 5606 5606 5606 5606 5606 5606 5606 5606 5606 5607 5608 5608 5608 5609 5610 5610 5610 5610 5610 5610 5610 5612 5612 5614 5614 5615 5616 5616 5616 5617 5618 5618 5620 5620 5620 5621 5622 5624 5626 5628 5628 5630 5631 5632 5633 5634 5635 5637 5639 5640 5642 5644 5644 5644 5646 5647 5649 5650 5652 5654 5658 5659 5659 5660 5662 5665 5667 5668 5670 5673 5676 5676
5605 5604 5603 5602 5601 5600 5600 5598 5598 5597 5596 5596 5596 5596 5596 5596 5596 5596 5596 5596 5596 5596 5597 5598 5598 5599 5600 5600 5601 5601 5602 5602 5602 5602 5603 5605 5606 5606 5608 5608 5608 5609 5610 5610 5610 5611 5612 5612 5613 5614 5615 5617 5618 5620 5622 5623 5624 5626 5626 5628 5630 5632 5633 5634 5636 5638 5638 5639 5640 5642 5644 5646 5650 5650 5650 5651 5654 5657 5658 5660 5662 5664 5666 5668 5670
5595 5594 5592 5592 5590 5590 5589 5588 5587 5586 5586 5586 5585 5585 5586 5586 5586 5586 5586 5586 5587 5587 5588 5588 5588 5590 5590 5591 5591 5592 5592 5592 5593 5594 5594 5596 5598 5598 5600 5600 5600 5601 5602 5602 5603 5604 5604 5604 5606 5606 5607 5608 5610 5612 5614 5615 5617 5619 5620 5620 5622 5623 5624 5628 5630 5632 5632 5632 5634 5636 5638 5640 5642 5642 5642 5646 5648 5650 5652 5654 5656 5658 5659 5662 5664
5584 5583 5582 5581 5580 5580 5578 5578 5576 5576 5575 5574 5574 5574 5574 5574 5574 5574 5575 5576 5576 5576 5577 5578 5578 5579 5580 5580 5581 5582 5582 5582 5584 5584 5585 5586 5588 5590 5590 5590 5592 5592 5593 5594 5594 5595 5596 5596 5597 5598 5600 5600 5602 5603 5605 5607 5609 5610 5612 5612 5614 5614 5616 5620 5623 5624 5624 5626 5628 5629 5630 5634 5636 5636 5638 5640 5642 5644 5646 5648 5650 5652 5652 5654 5656
5574 5572 5572 5570 5570 5568 5568 5566 5566 5565 5564 5564 5564 5563 5563 5563 5563 5563 5564 5564 5564 5565 5566 5566 5568 5568 5569 5570 5570 5571 5571 5572 5573 5574 5575 5576 5578 5580 5581 5582 5582 5584 5584 5586 5586 5586 5588 5588 5588 5590 5592 5593 5594 5595 5597 5598 5600 5601 5603 5605 5606 5607 5610 5612 5614 5615 5618 5620 5620 5620 5623 5626 5628 5630 5632 5634 5636 5638 5640 5642 5644 5645 5646 5648 5649
5563 5562 5560 5560 5558 5558 5556 5556 5556 5554 5554 5554 5553 5552 5552 5552 5552 5552 5552 5552 5552 5553 5554 5554 5556 5556 5558 5558 5559 5560 5560 5561 5562 5564 5564 5566 5566 5568 5570 5572 5572 5574 5575 5576 5578 5578 5578 5579 5579 5580 5583 5585 5586 5588 5589 5590 5591 5592 5594 5596 5598 5600 5602 5604 5606 5608 5610 5611 5612 5613 5616 5618 5622 5624 5626 5628 5630 5632 5634 5636 5638 5638 5640 5643 5644
5552 5552 5550 5550 5548 5546 5546 5545 5544 5544 5544 5543 5542 5542 5542 5541 5541 5541 5541 5541 5541 5542 5542 5543 5544 5544 5546 5546 5548 5548 5549 5550 5551 5552 5553 5554 5556 5557 5559 5560 5562 5564 5565 5566 5568 5568 5568 5570 5570 5571 5574 5576 5578 5579 5581 5582 5584 5584 5586 5588 5590 5592 5594 5596 5598 5600 5602 5602 5604 5606 5608 5612 5615 5617 5620 5621 5623 5625 5628 5630 5630 5632 5635 5636 5636
5543 5542 5541 5540 5538 5536 5535 5534 5533 5532 5532 5532 5531 5530 5530 5529 5529 5529 5530 5530 5530 5530 5531 5532 5532 5534 5534 5535 5536 5536 5538 5538 5540 5540 5542 5542 5544 5545 5546 5548 5550 5552 5554 5556 5556 5558 5558 5560 5560 5562 5564 5566 5568 5570 5572 5574 5576 5576 5578 5578 5581 5584 5586 5588 5590 5592 5594 5594 5596 5598 5601 5604 5607 5610 5612 5613 5614 5618 5620 5622 5622 5624 5626 5628 5628
5534 5533 5532 5530 5528 5526 5524 5522 5521 5520 5520 5520 5519 5518 5518 5518 5518 5518 5518 5518 5518 5519 5520 5520 5522 5522 5523 5524 5524 5525 5526 5527 5528 5529 5530 5532 5532 5534 5535 5537 5538 5540 5543 5544 5545 5546 5548 5550 5552 5553 5554 5557 5559 5561 5562 5564 5566 5568 5569 5570 5572 5574 5578 5580 5582 5584 5586 5588 5589 5592 5593 5596 5598 5602 5604 5604 5606 5609 5610 5612 5614 5616 5618 5620 5621
5524 5521 5518 5516 5514 5512 5510 5508 5508 5508 5508 5508 5508 5507 5507 5507 5507 5507 5507 5507 5508 5508 5508 5509 5510 5511 5512 5512 5513 5514 5515 5516 5517 5518 5519 5520 5522 5522 5524 5526 5526 5528 5530 5532 5534 5536 5538 5540 5542 5543 5545 5548 5550 5552 5553 5554 5556 5558 5560 5562 5563 5566 5568 5570 5573 5576 5578 5580 5582 5583 5585 5588 5590 5592 5595 5597 5599 5600 5602 5606 5608 5608 5611 5613 5614
5510 5507 5504 5502 5501 5499 5498 5496 5496 5496 5496 5496 5496 5496 5496 5496 5496 5496 5496 5496 5496 5496 5496 5496 5498 5498 5500 5500 5502 5502 5503 5504 5505 5506 5508 5509 5510 5512 5513 5514 5515 5516 5518 5520 5523 5525 5527 5528 5531 5533 5535 5537 5539 5541 5543 5545 5546 5548 5550 5552 5554 5556 5558 5560 5564 5566 5569 5572 5574 5575 5578 5580 5582 5584 5586 5589 5591 5593 5596 5598 5599 5600 5603 5605 5607
5496 5494 5492 5490 5488 5488 5486 5486 5486 5486 5486 5486 5485 5485 5485 5485 5485 5485 5484 5484 5484 5484 5484 5484 5484 5486 5486 5487 5488 5490 5491 5492 5492 5494 5495 5497 5498 5500 5502 5504 5504 5506 5508 5510 5512 5514 5516 5518 5520 5522 5524 5526 5528 5531 5533 5535 5536 5538 5540 5542 5545 5548 5549 5551 5554 5556 5559 5562 5564 5566 5568 5572 5574 5576 5578 5581 5583 5585 5587 5589 5590 5592 5594 5597 5600
5486 5484 5482 5480 5478 5476 5475 5474 5474 5475 5475 5474 5474 5473 5473 5472 5473 5473 5473 5473 5472 5472 5472 5472 5472 5472 5472 5474 5474 5476 5478 5479 5480 5482 5483 5484 5486 5488 5490 5492 5494 5495 5496 5498 5500 5502 5504 5506 5508 5510 5512 5515 5518 5520 5522 5524 5526 5528 5529 5532 5536 5538 5540 5542 5544 5546 5550 5554 5556 5556 5558 5562 5565 5567 5569 5572 5574 5576 5579 5581 5582 5584 5587 5589 5591
5478 5476 5474 5472 5470 5468 5466 5466 5465 5465 5464 5463 5462 5460 5460 5460 5460 5460 5460 5460 5460 5460 5460 5461 5460 5460 5460 5460 5461 5462 5464 5465 5466 5468 5470 5472 5474 5475 5476 5478 5480 5483 5486 5487 5488 5490 5492 5495 5498 5500 5502 5504 5506 5509 5512 5514 5516 5517 5519 5522 5526 5528 5530 5533 5536 5537 5540 5543 5545 5547 5550 5553 5556 5557 5560 5563 5565 5568 5570 5573 5575 5577 5578 5580 5584
5470 5468 5466 5464 5462 5459 5458 5458 5456 5456 5454 5452 5450 5448 5448 5448 5446 5447 5448 5448 5448 5448 5448 5448 5450 5450 5449 5448 5448 5448 5450 5452 5453 5454 5456 5458 5460 5462 5464 5466 5468 5470 5472 5475 5477 5478 5480 5483 5486 5488 5491 5493 5496 5498 5500 5502 5504 5506 5509 5512 5516 5518 5519 5522 5526 5528 5531 5533 5534 5538 5540 5544 5546 5548 5550 5553 5555 5558 5561 5564 5567 5568 5570 5572 5576
5461 5458 5456 5454 5452 5450 5449 5448 5446 5446 5444 5442 5438 5436 5435 5435 5434 5435 5435 5436 5436 5436 5436 5436 5436 5438 5438 5438 5438 5437 5437 5438 5439 5441 5443 5444 5446 5448 5450 5452 5454 5457 5460 5462 5464 5466 5468 5470 5474 5476 5479 5481 5484 5486 5488 5490 5492 5495 5498 5502 5505 5508 5508 5512 5515 5518 5522 5523 5524 5528 5531 5534 5538 5538 5540 5542 5545 5548 5552 5554 5557 5560 5562 5565 5568
5451 5448 5446 5444 5442 5439 5438 5436 5435 5434 5432 5430 5426 5422 5421 5420 5421 5422 5422 5422 5423 5424 5423 5422 5422 5424 5425 5426 5427 5427 5427 5426 5426 5427 5428 5430 5432 5434 5436 5438 5441 5444 5446 5448 5451 5454 5456 5458 5461 5464 5466 5469 5472 5474 5477 5479 5481 5484 5488 5491 5494 5496 5496 5500 5504 5507 5510 5512 5515 5518 5522 5525 5528 5528 5530 5532 5535 5538 5542 5544 5546 5550 5552 5556 5559
5440 5439 5437 5434 5432 5428 5426 5424 5422 5419 5417 5415 5413 5410 5408 5406 5406 5407 5407 5408 5408 5409 5408 5408 5408 5408 5410 5412 5412 5414 5416 5416 5416 5416 5416 5416 5418 5419 5422 5424 5428 5430 5432 5435 5438 5440 5442 5445 5448 5451 5454 5456 5460 5462 5465 5468 5470 5473 5476 5480 5483 5484 5485 5489 5493 5496 5498 5502 5504 5508 5512 5516 5518 5518 5521 5524 5525 5528 5531 5534 5537 5540 5542 5546 5549
5432 5430 5427 5424 5422 5420 5416 5413 5408 5405 5402 5400 5400 5398 5395 5393 5392 5391 5390 5390 5391 5392 5392 5392 5392 5393 5394 5396 5396 5398 5400 5402 5404 5404 5404 5405 5405 5405 5406 5410 5413 5416 5418 5421 5424 5426 5428 5431 5434 5438 5441 5444 5447 5450 5452 5455 5458 5462 5465 5468 5470 5472 5474 5478 5481 5484 5488 5491 5494 5498 5502 5505 5506 5508 5510 5514 5516 5518 5520 5523 5528 5530 5533 5536 5539
5425 5422 5418 5416 5413 5410 5406 5402 5398 5394 5392 5390 5388 5385 5382 5380 5377 5376 5374 5373 5372 5372 5372 5374 5376 5378 5378 5379 5380 5381 5382 5385 5388 5390 5392 5394 5394 5393 5394 5395 5398 5400 5404 5406 5410 5412 5416 5418 5421 5424 5427 5430 5434 5437 5440 5442 5446 5450 5453 5456 5458 5460 5462 5466 5470 5473 5477 5480 5482 5485 5490 5495 5496 5497 5500 5504 5506 5508 5510 5513 5518 5520 5524 5526 5528
5416 5413 5410 5408 5405 5402 5397 5393 5390 5386 5384 5380 5378 5374 5371 5367 5364 5361 5359 5358 5356 5354 5354 5354 5355 5358 5360 5362 5362 5364 5366 5367 5370 5373 5376 5378 5380 5380 5381 5382 5384 5386 5388 5391 5394 5398 5402 5405 5408 5411 5414 5417 5420 5424 5426 5430 5432 5436 5440 5443 5446 5448 5450 5454 5458 5462 5466 5468 5470 5473 5479 5484 5486 5486 5490 5493 5496 5498 5501 5504 5508 5510 5512 5516 5519
5408 5404 5402 5399 5396 5392 5388 5384 5382 5378 5374 5371 5367 5364 5360 5356 5352 5350 5346 5344 5341 5339 5337 5336 5336 5337 5340 5342 5344 5346 5348 5349 5351 5353 5356 5360 5364 5366 5366 5368 5370 5372 5374 5376 5380 5383 5386 5391 5395 5398 5401 5404 5406 5410 5414 5416 5420 5423 5426 5430 5433 5436 5439 5442 5447 5451 5454 5456 5458 5462 5468 5472 5474 5475 5478 5482 5486 5488 5491 5494 5498 5500 5502 5506 5508
5398 5396 5393 5390 5386 5382 5379 5376 5372 5368 5364 5361 5356 5352 5348 5344 5341 5338 5334 5330 5328 5325 5322 5320 5318 5318 5318 5320 5322 5325 5328 5330 5331 5332 5336 5340 5344 5348 5350 5353 5356 5358 5361 5363 5366 5368 5372 5376 5380 5384 5388 5390 5394 5396 5400 5404 5407 5410 5414 5418 5420 5424 5427 5431 5435 5439 5442 5445 5447 5450 5456 5460 5461 5464 5468 5472 5476 5478 5480 5483 5487 5490 5494 5495 5496
5390 5387 5384 5380 5377 5374 5370 5366 5362 5359 5355 5351 5346 5342 5336 5332 5328 5325 5321 5317 5314 5311 5308 5306 5304 5301 5300 5300 5300 5303 5306 5309 5311 5313 5316 5320 5324 5328 5332 5336 5340 5343 5347 5350 5350 5354 5358 5362 5366 5370 5374 5376 5380 5383 5386 5390 5393 5396 5400 5404 5408 5412 5415 5419 5423 5427 5430 5434 5436 5440 5444 5448 5450 5452 5457 5461 5464 5467 5470 5472 5476 5480 5483 5484 5485
5382 5378 5375 5372 5368 5365 5362 5358 5354 5350 5346 5341 5336 5332 5326 5322 5318 5313 5308 5304 5300 5297 5294 5292 5290 5286 5284 5283 5282 5282 5284 5288 5290 5294 5298 5301 5304 5308 5312 5317 5322 5326 5332 5335 5336 5338 5344 5348 5352 5356 5359 5362 5366 5370 5374 5376 5380 5382 5386 5390 5394 5398 5402 5407 5412 5416 5419 5422 5425 5428 5432 5436 5440 5442 5446 5450 5452 5456 5458 5460 5464 5468 5471 5472 5474
5375 5370 5367 5363 5360 5356 5352 5349 5346 5341 5336 5332 5327 5322 5318 5313 5308 5304 5298 5294 5290 5286 5282 5279 5276 5274 5272 5269 5267 5266 5266 5267 5270 5274 5278 5281 5284 5288 5292 5297 5302 5309 5316 5320 5321 5324 5328 5333 5338 5342 5345 5348 5352 5357 5360 5363 5366 5370 5372 5376 5380 5384 5389 5394 5398 5402 5406 5410 5414 5418 5422 5426 5428 5430 5434 5438 5440 5444 5446 5449 5454 5457 5460 5461 5464
5366 5362 5359 5356 5352 5348 5344 5341 5337 5332 5328 5323 5318 5314 5309 5304 5300 5295 5290 5286 5281 5276 5272 5268 5264 5262 5259 5256 5254 5252 5251 5251 5252 5254 5257 5260 5264 5268 5272 5278 5284 5290 5297 5302 5305 5308 5313 5318 5322 5328 5332 5335 5339 5344 5347 5350 5353 5356 5359 5363 5367 5372 5376 5380 5384 5389 5394 5398 5402 5406 5410 5413 5416 5419 5422 5426 5430 5432 5434 5438 5442 5446 5448 5450 5452
5358 5354 5352 5348 5344 5341 5337 5333 5329 5325 5320 5315 5310 5306 5301 5296 5292 5287 5282 5278 5273 5268 5264 5260 5256 5252 5248 5245 5242 5240 5238 5238 5237 5238 5239 5242 5244 5248 5254 5259 5266 5272 5278 5282 5286 5292 5298 5304 5308 5312 5317 5322 5326 5330 5333 5336 5340 5343 5346 5350 5355 5360 5364 5368 5372 5376 5380 5384 5388 5392 5396 5400 5404 5406 5410 5414 5418 5420 5423 5426 5430 5433 5435 5438 5440
5352 5348 5344 5340 5337 5333 5329 5325 5321 5316 5312 5308 5303 5298 5294 5289 5284 5280 5275 5270 5266 5261 5256 5252 5248 5244 5240 5236 5232 5230 5228 5226 5225 5224 5224 5226 5228 5231 5236 5241 5246 5252 5258 5264 5269 5275 5282 5288 5293 5298 5302 5308 5313 5317 5320 5324 5327 5330 5334 5338 5343 5348 5352 5356 5360 5364 5368 5372 5374 5378 5382 5386 5390 5394 5398 5402 5405 5408 5412 5414 5417 5420 5422 5425 5428
5344 5340 5336 5332 5329 5326 5322 5318 5314 5308 5304 5300 5296 5291 5287 5282 5278 5274 5268 5264 5259 5254 5250 5245 5241 5236 5232 5228 5224 5221 5218 5216 5215 5213 5212 5212 5214 5216 5220 5224 5228 5233 5240 5246 5252 5258 5265 5272 5276 5282 5288 5294 5299 5304 5307 5310 5314 5318 5321 5326 5331 5336 5340 5344 5348 5352 5356 5359 5362 5365 5368 5372 5377 5381 5384 5388 5392 5396 5399 5402 5404 5408 5410 5412 5415
5338 5334 5330 5326 5322 5318 5314 5310 5306 5301 5297 5293 5288 5284 5280 5276 5271 5266 5262 5257 5252 5248 5243 5238 5234 5230 5226 5222 5218 5214 5211 5208 5206 5204 5202 5202 5202 5204 5206 5208 5212 5216 5222 5227 5232 5240 5248 5254 5260 5266 5274 5280 5285 5290 5293 5296 5300 5304 5308 5313 5319 5324 5328 5332 5336 5340 5344 5347 5350 5353 5356 5360 5364 5367 5371 5375 5378 5382 5386 5388 5391 5394 5396 5400 5402
5330 5326 5322 5318 5314 5311 5308 5304 5299 5294 5290 5286 5282 5278 5274 5269 5264 5260 5256 5250 5246 5242 5237 5232 5228 5225 5220 5216 5212 5208 5205 5202 5200 5197 5196 5194 5194 5194 5194 5196 5198 5200 5204 5210 5217 5224 5232 5238 5244 5250 5258 5266 5272 5276 5279 5284 5288 5292 5296 5301 5306 5312 5318 5322 5326 5328 5332 5336 5338 5341 5344 5348 5352 5354 5358 5362 5364 5368 5371 5374 5377 5380 5384 5387 5390
5323 5318 5314 5311 5307 5303 5300 5296 5292 5287 5283 5279 5276 5271 5267 5263 5258 5254 5250 5244 5240 5236 5231 5227 5223 5220 5216 5212 5207 5204 5200 5196 5194 5192 5190 5188 5187 5186 5186 5186 5187 5189 5192 5198 5204 5209 5215 5222 5228 5235 5243 5252 5258 5261 5266 5270 5275 5280 5284 5289 5294 5300 5306 5310 5314 5318 5320 5324 5326 5329 5333 5337 5340 5343 5346 5348 5351 5354 5356 5360 5364 5368 5372 5374 5378
5316 5312 5308 5304 5300 5296 5292 5289 5285 5280 5276 5272 5268 5264 5260 5257 5253 5248 5244 5239 5235 5230 5226 5222 5218 5214 5211 5207 5204 5200 5196 5192 5190 5187 5184 5182 5181 5180 5180 5179 5180 5182 5184 5187 5191 5196 5201 5207 5214 5220 5228 5237 5243 5248 5252 5258 5262 5267 5272 5278 5284 5288 5293 5298 5302 5306 5309 5312 5314 5318 5321 5325 5328 5332 5334 5336 5338 5340 5342 5346 5351 5356 5359 5362 5366
5309 5305 5302 5298 5294 5290 5286 5282 5278 5274 5270 5266 5262 5258 5254 5250 5247 5242 5238 5234 5230 5226 5222 5218 5214 5210 5206 5203 5200 5196 5192 5190 5186 5183 5180 5178 5176 5176 5175 5174 5175 5176 5178 5179 5182 5186 5190 5196 5201 5208 5214 5222 5230 5235 5240 5245 5250 5254 5260 5266 5272 5276 5281 5286 5290 5294 5297 5300 5304 5306 5310 5312 5316 5320 5322 5323 5325 5327 5330 5334 5339 5342 5346 5348 5354
5304 5298 5294 5290 5287 5284 5280 5275 5270 5267 5264 5260 5256 5252 5248 5245 5241 5237 5233 5228 5224 5220 5217 5214 5210 5206 5202 5199 5196 5192 5190 5186 5184 5180 5178 5176 5174 5172 5172 5171 5172 5172 5173 5174 5176 5178 5182 5186 5191 5196 5202 5210 5217 5223 5228 5232 5238 5244 5249 5255 5260 5265 5270 5274 5278 5282 5285 5289 5292 5295 5298 5300 5304 5306 5308 5310 5312 5315 5318 5324 5328 5329 5332 5337 5344
5300 5294 5288 5284 5280 5277 5274 5270 5264 5260 5258 5254 5251 5248 5243 5239 5235 5232 5228 5224 5220 5216 5212 5209 5206 5202 5199 5196 5192 5190 5187 5184 5182 5179 5176 5174 5172 5170 5170 5169 5169 5169 5170 5170 5172 5174 5176 5179 5183 5188 5193 5199 5206 5211 5216 5222 5227 5232 5238 5244 5249 5254 5258 5262 5266 5270 5274 5277 5280 5282 5285 5288 5290 5293 5296 5298 5300 5304 5307 5312 5315 5316 5321 5328 5331
5293 5288 5284 5279 5275 5271 5267 5263 5258 5254 5251 5248 5244 5242 5238 5234 5230 5226 5223 5219 5216 5212 5208 5204 5202 5198 5196 5192 5190 5186 5184 5182 5180 5177 5174 5172 5170 5169 5168 5168 5168 5168 5168 5168 5169 5171 5173 5175 5178 5182 5186 5191 5196 5202 5206 5212 5218 5222 5228 5234 5238 5243 5247 5250 5254 5258 5262 5266 5268 5270 5273 5275 5278 5280 5283 5286 5290 5292 5296 5299 5302 5306 5310 5314 5314
5286 5282 5276 5272 5270 5265 5260 5256 5252 5248 5245 5242 5238 5236 5232 5229 5225 5222 5218 5214 5211 5208 5204 5200 5198 5195 5192 5190 5187 5184 5182 5180 5178 5176 5174 5172 5170 5168 5168 5167 5166 5166 5166 5167 5168 5170 5171 5173 5175 5178 5182 5186 5190 5194 5198 5204 5209 5214 5218 5223 5228 5232 5236 5239 5244 5248 5252 5254 5256 5258 5260 5262 5265 5268 5272 5274 5278 5280 5283 5286 5290 5294 5296 5298 5300
5280 5275 5270 5266 5262 5259 5254 5250 5246 5242 5238 5236 5232 5230 5228 5224 5220 5217 5214 5210 5206 5203 5200 5196 5194 5192 5189 5186 5184 5182 5180 5178 5176 5174 5172 5171 5170 5168 5168 5166 5166 5166 5166 5166 5167 5168 5170 5171 5173 5176 5178 5182 5186 5189 5192 5197 5201 5206 5209 5214 5218 5222 5226 5230 5234 5238 5240 5242 5244 5246 5248 5250 5253 5256 5260 5263 5266 5268 5270 5272 5277 5280 5281 5284 5289
5273 5268 5263 5258 5255 5252 5248 5244 5240 5236 5232 5228 5226 5224 5222 5219 5216 5212 5209 5206 5202 5199 5196 5193 5190 5188 5186 5184 5182 5180 5178 5176 5174 5172 5172 5170 5169 5168 5167 5166 5166 5166 5166 5166 5166 5168 5168 5170 5172 5174 5176 5178 5181 5184 5188 5191 5194 5198 5202 5205 5208 5212 5216 5220 5224 5228 5230 5232 5234 5236 5236 5238 5241 5244 5248 5250 5252 5254 5256 5260 5264 5266 5268 5272 5276
5266 5261 5256 5252 5248 5244 5240 5237 5233 5229 5226 5222 5220 5217 5216 5214 5210 5208 5204 5202 5199 5196 5192 5189 5186 5184 5182 5180 5178 5176 5175 5174 5172 5170 5170 5168 5168 5166 5166 5165 5164 5164 5164 5164 5165 5166 5166 5168 5169 5170 5172 5175 5177 5180 5182 5186 5189 5192 5194 5198 5201 5204 5208 5211 5214 5218 5220 5221 5222 5224 5226 5228 5230 5232 5235 5238 5240 5242 5244 5248 5250 5253 5256 5260 5264
5260 5254 5250 5245 5241 5236 5233 5230 5226 5222 5219 5216 5213 5210 5209 5208 5205 5202 5200 5198 5194 5192 5188 5186 5183 5181 5179 5177 5175 5174 5172 5171 5170 5168 5168 5166 5166 5164 5164 5163 5162 5162 5162 5162 5162 5163 5164 5164 5166 5168 5169 5170 5173 5176 5178 5181 5183 5186 5188 5191 5194 5196 5200 5202 5206 5208 5210 5210 5212 5214 5216 5217 5219 5222 5224 5226 5228 5230 5232 5235 5238 5241 5244 5248 5250
5253 5247 5242 5238 5233 5230 5226 5222 5218 5216 5212 5210 5206 5204 5202 5200 5199 5197 5195 5192 5190 5188 5184 5182 5180 5178 5176 5174 5172 5170 5169 5168 5167 5166 5165 5164 5163 5162 5162 5160 5160 5160 5160 5160 5160 5160 5161 5162 5162 5164 5165 5166 5168 5171 5173 5175 5178 5180 5182 5184 5186 5189 5192 5194 5197 5200 5200 5200 5202 5204 5206 5207 5209 5211 5212 5214 5216 5218 5220 5222 5226 5230 5232 5234 5235
5246 5240 5234 5230 5225 5222 5218 5214 5212 5208 5206 5203 5200 5198 5196 5194 5192 5190 5189 5188 5186 5184 5180 5178 5176 5174 5172 5170 5168 5168 5166 5165 5164 5163 5162 5161 5160 5160 5158 5158 5158 5158 5157 5157 5158 5158 5158 5158 5160 5160 5161 5162 5164 5166 5168 5170 5172 5174 5176 5178 5180 5182 5184 5187 5190 5192 5192 5192 5194 5196 5198 5198 5200 5202 5204 5204 5206 5206 5208 5211 5215 5218 5220 5220 5222
5238 5232 5227 5222 5218 5214 5210 5207 5204 5201 5198 5196 5194 5191 5189 5188 5186 5184 5183 5182 5180 5178 5176 5174 5172 5170 5168 5166 5165 5164 5162 5162 5160 5160 5158 5158 5157 5156 5156 5155 5154 5154 5154 5154 5154 5154 5155 5156 5156 5157 5158 5159 5160 5162 5164 5165 5167 5169 5171 5172 5174 5176 5178 5180 5182 5184 5186 5186 5187 5189 5190 5191 5192 5194 5196 5196 5197 5198 5199 5202 5205 5206 5208 5209 5211
5232 5226 5220 5216 5210 5206 5202 5199 5196 5194 5192 5189 5186 5184 5182 5181 5180 5178 5176 5176 5175 5174 5172 5170 5168 5166 5164 5162 5162 5160 5159 5158 5157 5156 5155 5154 5154 5153 5152 5152 5152 5151 5151 5151 5150 5151 5152 5152 5153 5154 5154 5156 5156 5158 5159 5160 5162 5164 5166 5167 5168 5170 5172 5174 5176 5178 5179 5180 5180 5182 5183 5184 5185 5187 5188 5189 5190 5190 5192 5194 5196 5197 5198 5200 5201
5226 5220 5216 5210 5204 5200 5196 5192 5189 5186 5184 5182 5180 5178 5176 5175 5174 5172 5170 5170 5169 5168 5167 5165 5164 5162 5160 5158 5158 5156 5155 5154 5153 5152 5152 5150 5150 5149 5149 5149 5148 5148 5148 5148 5148 5148 5148 5148 5149 5150 5151 5152 5152 5154 5156 5156 5158 5160 5161 5162 5163 5164 5166 5168 5170 5172 5172 5173 5174 5175 5176 5177 5178 5180 5181 5182 5182 5183 5185 5187 5189 5190 5190 5192 5193